Location: Newark
(48.6676°N, 6.1917°E)
Time: 02:52:08
(UTC+00:00)

N. Korean satellite - Pass Details

Date: 12 December 2019
Orbit: 454 x 507 km, 97.2° (Epoch: 23 January)

Event Time Altitude Azimuth Distance (km) Brightness Sun altitude
Rises 17:55:25 0° 220° (SW) 2,602 11.1 -21.4°
Reaches altitude 10° 17:59:26 10° 264° (W) 1,719 10.5 -22.0°
Maximum altitude 18:00:00 10° 272° (W) 1,701 10.4 -22.1°
Drops below altitude 10° 18:00:34 10° 281° (WNW) 1,718 10.3 -22.2°
Sets 18:04:35 0° 326° (NW) 2,599 10.6 -22.9°
